Погода в Падуе

Италия     45°24′33″N   11°52′21″E
темп.,
°C
ветер,
м/с
пор.,
м/с
влажн.,
%
обл.,
%
осадки,
мм/ч
давл.,
гПа
погр.,
м
4 июля, пн
пн423:00+24юв11660 0.0 101613
02:00+23с22710 0.0 101612
05:00+22ссв227091 0.0 101517
08:00+25с11570 0.0 1016126
11:00+31всв22475 0.0 1015623
14:00+34св1235100 0.0 10141803
17:00+34вюв43372 0.3 10111015
20:00+21ссв38864 3.0 1013182
5 июля, вт
вт523:00+21ссз91687100 1.0 1015427
02:00+20зсз3589100 2.4 101496
05:00+21з338599 0.4 101445
08:00+23зюз22760 0.4 1014177
11:00+29ююз11500 0.0 1014751
14:00+33св01380 0.0 10131657
17:00+33св22360 0.0 10121898
20:00+28всв48580 0.0 1013223
6 июля, ср
ср623:00+21ссв22762 0.2 101542
02:00+20св2282100 0.4 101621
05:00+20с61090100 1.6 1017259
08:00+23сз127512 2.6 1018120
11:00+28всв22472 0.0 10181071
14:00+31в44340 0.0 10172152
17:00+31ююв44320 0.0 10161786
20:00+27юв22504 0.0 101523
7 июля, чт
чт723:00+23ссв22634 0.0 101611
02:00+19ссв348489 0.8 101663
05:00+18ссв238577 0.4 101642
08:00+21ссв3780100 0.4 1016225
11:00+23св496599 0.1 1016652
14:00+26св345299 0.6 1015777
17:00+27всв7847100 0.0 10141501
20:00+20св5983100 0.8 1015348
8 июля, пт
пт823:00+19с1283100 0.1 101621
02:00+17ссв22860 0.1 101731
05:00+16сз22830 0.0 101720
08:00+20зсз22660 0.0 1018157
11:00+26юз33510 0.0 10181508
14:00+28юз21386 0.0 10171969
17:00+29юв433829 0.0 10162325
20:00+22юв48640 0.2 1017213